[Date Prev][Date Next][Thread Prev][Thread Next][Date Index][Thread Index]

[jamsat-news:1301] jas2info #196


========================   最新情報   ==============================

        Last updated :Sat.15Jul.2000  16:20 (JST) #196
====================================================================
   
  1)アマチュア通信衛星情報 FOシリーズの軌道要素、テレメトリ、
   QSOの状況等をまとめてみました.
   
   FO−29の7月15日(土)のテレメトリは12:42(JST)のパスでは
  JARLのホームページのとうりアナログ運用でした。
  これまでの受信したCWテレメトリを掲載しておきます.

 AS19308C1  15Jul2000
 12:42-12:55(JST)
 Freq.435.802-789MHz

 HI HI AE C7 88 55 1D 61 1A 0D 01 76 94 74 7F 60 94 90 B0 8D BF BD BE BE BC 
 HI HI AE C7 88 55 1D 61 1A 0D 01 76             93 92 B0 7D BF BD BE BE BC 
 HI HI AE C7 88 55 1D 61 1A 0D 01 76 5D 74 89 60 72 92 A1 81 BF BT BE BE BC 
 HI HI AE C7 88 55 1D 61 1A 0D 01 76 6        60 93 91 B0 92 BE BD BE BE BC 
 HI HI AE C7 88 55 1D 61 1A 0D 01 76 B9 69  7 41 96 92 B1 86 BE BD BE BE BC 
 HI HI AE C7 88 55 1D 61 1A 0D 01 76          60 93 91 B1 8A BE BD BE BD BC 
 HI HI AE 07 88 55 1D 61 1A 0D 01 76 43 8E 9E 60 93 91 B1 78 BE BC BD BD BC 
 HI HI AE C7 88 55 1D 61 1A 0D 01 76 A8 70 8A 40 94 92 B0 7D BD BC BD BD BC 
 HI HI AE C7 88 55 1D 61 1A 0D 01 76 6E 30 82 41 96 92 B0 7E BD BB BD BC BC 
 HI HI AE C7 88 55 1D 61 1A 0D 01 76 2A 4A 86 60 94 92 A0 86 BD BC BD BC BC 
 HI HI AE C7 88 55 1D 61 1A 0D 01 76 55 6A 75 60 92 90 B0 9B BD BB BC BC BC 

 AS19307C1  15Jul2000
 10:54-11:12(JST)
 Freq.435.804-.787MHz

 HI HI AE C7 88 55 1D 60 1A 0D 01 75 7A 86 8O 60 92 91 B0 90 BF BE BE BD BC 
 HI HI AE C7 88 55 1D 60 1A 0D 01 76 91 7E 85 60 91 93 B0 7B BF BD BB BD BC
 HI HI AE C7 88 55 1D 60 1A 0D O1 76 7A 80  9 60 94 92 B0 77 BE BE BF BD BC 
 HI HI AE C7 88 55 1D 61 1A 0D 01 76 53 8A 87 60 92 91 A0 88 BE BE BF BD BB 
 HI HI AE C7 88 55 1D 61 1A 0D 01 76 5B 97 88 60 93 91 B0 66 BE BE BE BC BB 
 HI HI AE C7 88 55 1D 61 1A 0D 01 76 89 92 83 45 95 92 B0 83 BE BE BE BC BC 
 HI HI AE C7 88 55 1D 61 1A 0D 01 76 8A 71 86 60 93 90 B0 69 BD BE BE BC BC 
 HI HI AE C7 88 55 1D 61 1A 0D 01 76 56 5F 85 42 95 92 B0 6D BD BD BE BC BC 
 HI HI AE C7 88 55 1D 61 1A 0D 01 76 6B 5E 60 93 91 92 B0 7E BD BE BE BC BC 
 HI HI AE 07 88 55 1D 61 1A 0D 01 76 78 A1 86 60 92 90 B0 75 BD BD BE BC BC 
 HI HI AE C7 88 55 1D 61 1A 0D 01 76 98 7D 7E 49 95 92 B0 A0 BD BD BE BC BC
 HI HI AE C7 88 55 1D 61 1A 0D 01 76 63 40 73 61 94 91 B0 72 BD BD BE BC BC 
 HI HI AE C7 88 55 1D 61 1A 0D 01 76 34 59 82 61 93 90 B0 7D BD BD BE BC BC
 HI HI AE C7 88 55 1D 61 1A 1D 01 76 5E 9D 7F 60 93 91 B0 88 BD BD BD BC BC 
 HI HI AE C7 88 55 1D 61 1A 0D 01 76 8B 9E 71 60 93 90 B0    BD BD BD BC BC 
 HI HI AE C7 88 55 1D 61 1A 0D 01 76 96 55 86 60 92 90 B0 85 BD BC BD BC BC 
 HI HI AE C7 88 55 1D 61 1A 0D 01 76 55 27 6F 60 93 90 B0 72 BD BC BD BB BC 
 HI HI AE C7 88 55 1D 61 1A 0D 01 76 31 5F 87 60 93 90 B0 86 BC BC BD BC BC 
 HI HI AE C7 88 51 1D 61 1A 0D 01 56 A8 92 7A 60 93 91 B0 85 BC BC BD BB BC 
 HI HI AE C7 88 55 1D 61 1A 0D 01 76 90 3A 89 60 95 93 B0 61 BC BC BD BB BC 
 HI HI AE C7 88 55 1D 61 1A 0D 01 76 47 23 84 60 93 90 B0 B5 BC BC BD BB BC 
 HI HI AE C7 88 55 1D 61 1A 0D 01 76 38 6D 7D 60 93 91 B0 90 BC BB BC BB BC 
 HI HI AE C7 88 55 1D 61 1A 0D 01 76 7B 72 6B 60 92 91 B0 81 BC BB BC BB BC 
 
 AS19294C1 14Jul2000
 11:52-12:06(JST)
 Freq.435.803-.788MHz

 HI HI AE C7 88 51 1D 5F 1A 0D 01 76          60 94 92 B0 98 BE BD BE BD BC 
 HI HI AE C7 88 51 1D 5F 1A 0D 01 76 4B 87 84 60 92 90 B0 9B BE BD BE BD BC 
 HI HI AE C7 88 51 1D 5F 1A 0D 01 76 5B 99 81 61 94 92 B0 8F BE BD BE BD BC 
 HI HI AE C7 88 51 1D 5F 1A 0A 01 76 91 8E 76 B0 9  91 B0 86 BE BD BE BD BC 
 HI HI AE C7 88 51 1D 5F 1A 0D 01 76 85 66 88 5F 92 92 A2 8D BE B0 BE BD BC 
 HI HI AE C7 88 51 1D 5F 1A 0D 01 76 41 64 7F 61 94 92 B0 91 BE BD BD BD BC 
 HI HI AE C7 88 51 1D 5F 1A 0D 01 76 4A 93 87 60 93 91 B0 77 BE BD BD BD BC 
 HI HI AE C7 88 51 1D 5F 1A 0D 01 76 8E 9E 6F 60 93 91 B0 84 BE BC BD BD BC 
 HI HI AE C7 88 51 1D 5F 1A 0D 01 76 93 60 7A 60 92 90 B0    BE BC BD BD BC 
 HI HI AE C7 88 51 1D 5F 1A 0D 01 76 4E 3A 77 60 92 92 B0    BE BC BD BD BC 
 HI HI AE C7 88 51 1S 5F 1A 0D 01 76 33 72 88 60 92 92 A0 85 BD BC BD BC BC 
 HI HI AE C7 88 51 1D 5F 1A 0D 01 76 75 AB 6A 60 92 91 A1 7F BD BC BD BC BC 
 HI HI AE C7 88 51 1D 5F 1A 0D 01 76 A6 70 7F 60 92 90 9F 7D BD BC BD BC BC 
 HI HI AE C7 88 51 1D 5F 1A 0D 01 76 66 27 7A 60 92 90 B0 8F BD BC BD BC BC 
 HI HI AE C7 88 51 1D 5F 1A 0D 01 76 2D 4D 85 60 93 91 B0 80 BD BB BD BC BC 
 HI HI AE C7 87 51 1D 5F 1A 0D 01 76 5F A6 6B 60 93 91 B0 8E BD BB BD BC BC 
 HI HI AE C7 88 51 1D 5F 1A 0D 01 76 6E       60 92 91 B0 78 BD BB BC BC BC 
 HI HI AE C7 88 51 1D 5F 1A 0D 01 76 85 2C 81 60 93 90 B1 91 B0 BB BC BC BC 

 AS19281C1  13Jul2000
 12:54-13:01(JST)

 HI HI AE C7 88 51 1D 5C 1A                   60 93 91 B0 88 HD BC BD BC BB 
 HI HI AE C7 88 51 1D 5C 1A 0D 01 76 4E 3B 7B 60 92 90 B0 7E BD BC BD BC BB 
 HI HI AE C7 88 51 1D 5C 1A 0D 01 76 38 79 8B 60 93 90 B0 7F BC BC BD BC BB  
 HI HI AE C7 88 51 1D 5C 1A 0D 01 76 7C AB 6C 60 92 90 B0 7B BC BC BD BC BB 
 HI HI AE C7 88 51 1D 5C 1A 0D 01 76 71       60 92 90 B0 6C BC BB BC BC BB 
 HI HI AE C7 88 51 1D 5C 1A 0D 01 76 63 27 7A 60 93 90 B0    BC BB BC BC BB 
 HI HI AE 07 88 51 1D 5C 1A 0D 01 76 2F 55 85 61 93 91 B0 7E BC BB BC BB BB 
 HI HI AE C7 88 51 1D 5C 1A 0D 01 76          60 93 91 B0 6F BC BB BC BB BB 
 HI HI AE C7 88 51 1D 5C 1A 0D 01 76 AC 72 74 60 92 92 B0 71 BC BB BC BB BB 

 AS19253C1  11Jul2000
 11:10-11:21(JST)
                                                          7E BC BC BC BB BB 
 HI HI AE C7 88 55 1D 5B 1A 0D 01 76 60 2C 84 61 94 92 B0 6C BC BC BC BB BB 
 HI HI AE C7 88 55 1D 5B 1A 0D 01 76 35 7E 78 60 93 91 B0 9F BC BB BC BB BB 
 HI HI AE C7 88 55 1D 5B 1A 0D 01 76 81 B7 60 60 93 91 B0 90 HF BB BC BB BB 
 HI HI AE C7 88 55 1D 5B 1A 0D 01 76 A9 63 60 60 93 91 B0 78 BC BB BC BB BB 
 HI HI AE 07 88 55 1D 5B 1A 0D 01 76 63 27 81 60 93 91 B1 75 BC BB BC BB BB 
 HI HI AE C7 88 55 1D 5B 1A 0D 01 76 35 7E 71 60 93 91 B0 88 BC BB BB BB BB 
 HI HI AE C7 88 55 1D 5B 1A 0D 01 76 84 BE 6D 61 93 91 B0 77 BC BA BB BB BA 
 HI HI AE C7 88 55 1D 5B 1A 0D 01 76 
 
 AS19240C1  10JUl2000
 12:12-12:15(JST)
 Freq.435.788-.788MHz

 HI HI AE C7 88 51 1D 5B 1A 0D 01 76 42 75 7C 60 92 90 9F 7D BB B8 BB BC BA 
 HI HI AE C7 88 51 1D 5B 1A 0D 01 76 42 3E 89 60 92 90 B0 86 BB B8 BB BC BA 
 HI HI AE C7 88 51 1D 5B 1A 0D 01 76 97 65 81 60 92 90 B0 89 BB B8 BB BC BA 
 HI HI AE 07 87 51 1D 5B 1A 0D 01 76 89 AE 63 6O 92 90 B0 5A BB B8 BB BC BA

 ------------------------ FO-29の軌道要素 ------------------------------        
 
  ■ 軌道要素1:「jamsat−keps:1011」より         
          SB KEPS @ AMSAT  $ORB00196.N
          2Line Orbital Elements 00196.AMSAT

 HR AMSAT ORBITAL ELEMENTS FOR AMATEUR SATELLITES IN NASA FORMAT
 FROM WA5QGD FORT WORTH,TX July 14, 2000
 SEND SUBSCRIBE/UNSUBSCRIBE TO majordomo@amsat.org ONLY
 BID: ORB00196.N

 FO-29
 1 24278U 96046B   00194.78532805 -.00000033  00000-0  14349-5 0  3436
 2 24278  98.5868  99.2804 0351296 160.6321 200.8560 13.52726771192752

 ■ 軌道要素2:「jamsat−keps:1012」より                    
         SB KEPS @ AMSAT  $ORB00196.O
         Orbital Elements  00196.OSCAR

 HR AMSAT ORBITAL ELEMENTS FOR OSCAR SATELLITES
 FROM WA5QGD FORT WORTH,TX July 14, 2000
 SEND SUBSCRIBE/UNSUBSCRIBE TO majordomo@amsat.org ONLY
 BID: ORB00196.O
 TO ALL RADIO AMATEURS BT
 
  Satellite: FO-29
 Catalog number: 24278
 Epoch time:      00194.78532805
 Element set:     343
 Inclination:       98.5868 deg
 RA of node:        99.2804 deg
 Eccentricity:    0.0351296
 Arg of perigee:   160.6321 deg
 Mean anomaly:     200.8560 deg
 Mean motion:   13.52726771 rev/day
 Decay rate:       -3.3e-07 rev/day^2
 Epoch rev:           19275
 Checksum:              321

-------------------  FO-29(JAS-2)のテレメトリに関する情報  ----------------------
 
 2)7月15日(土)のテレメトリの最後の行の変換例です.

 AS19308C1  15Jul2000
 12:42-12:55(JST)
 Freq.435.802-789MHz
 
 HI HI AE C7 88 55 1D 61 1A 0D 01 76 55 6A 75 60 92 90 B0 9B BD BB BC BC BC 
  
 テレメトリ  	内   容	 換算値	単 位  
 3C 磁気センサーZ軸=  41666.7[nT]
 3D 磁気センサX軸=   51960.8[nT]
 4A 太陽電池発生電流=   1147.1[mA]
 4B B充放電電流=     -118.4[mA]
 4C B端子電圧=        15.7[V]
 4D B中間端子電圧=       6.9[V]
 5A バス電圧    =     17.3[V]
 5B JTA送信電力=     909.4[mW]
 5C 構体温度1=         8.5[℃]
 5D 構体温度2=         9.3[℃]
 6A 構体温度3=         8.9[℃]
 6B 構体温度4=         8.9[℃]
 6C	Bセル温度=	      8.9[℃]
 
 * OSはWindows 2000,Office 2000 にて計算処理.
 
 ===========================  FO-29(ふじ3号)のQSO情報等 ======================
   
 3) [jamsat-bb:5410] 偏波面について においてアマチュア衛星の受信偏頗面について
  7K4IIN局の中島 昌一氏が投稿されてましたので転載させて頂きました.
  
jim> アパートからの運用として簡易設備で
jim> 基本から出直ししております.
jim> 
jim> 7/9は皆さんからの御指導のもと、
jim> 5エレ八木を手に持ってハンディで
jim> 偏波面を調べてみました.
jim> 午前中のAO-27、UO-14では
jim> AOSから垂直偏波で強く
jim> LOS前では水平偏波が強く受信できました.
jim> また、どうも円偏波ではなさそうです.
jim> 
jim> どちらかというと垂直偏波の方が多かったです.
jim> Orbitによっても違ってくるでしょうから、
jim> 衛星の構造や宇宙での飛行姿勢などを調べて
jim> もう少し考えてみます.
jim> 
jim> FO-20やFO-29はどうなのでしょうか.
jim> 日立市常置のアンテナは435MHzが垂直偏波です.
jim> 浦和市移動は水平偏波です.浦和市移動も垂直にすると
jim> もっと交信しやすいかもしれません.
jim> (いつも方位追尾を忘れてしまい皆様には御迷惑お掛けしております.)
jim> では、
jim> -- 
jim>   -`` `  --``` -`- ````- `` `` -`  with Mac PowerBook 2400/G3
jim> de 7K4iiN ; Inside Island Network
jim> Shoichi  中島 昌一 Nakashima, E-mail; jim@jsdi.or.jp
jim> 7k4iin@jamsat.or.jp, URL;http://www.jsdi.or.jp/~tina88/7k4iin/
jim>   TKS es CUAGN ----  ........ --... ...--  - ..- ...-.-
   
 ===============================================================================
   4)JARL のホームページに運用予定が記載されていましたのでご紹介します.
       ( http://www.jarl.or.jp/Japanese/3_Fuji/new/uy.htm )

        ■ ふじ3号/FOー29/JAS-2 ■  
   
     *** 運用予定について *** 

 ☆☆ デジトーカ運用を7月から運用 ☆☆
  
  7月10日 〜 7月19日アナログ系運用 

 ※7月20日 〜 8月31日 デジトーカ運用

  ※ 7月20日から8月まで,新音声データによるデジトーカ運用を
    行いますので,ご期待ください。
  なお,デジトー カ運用期間中,毎週水曜日に衛星の運用管理を行うため,
  アナログ系運用を実施致します。
  但し,混信等の影響により切り替えることができない場合は,
  デジトーカ運用を連続的に行うこうともありますので,予めご了承願います。 

 最新の情報はテレホンサービス(03−3942−1000)をお聞きください。  
 以後の運用につきましては8月下旬にお知らせいたします。
  
-----------------------    FO−20(JAS-1b)道要素   -------------------------
  5)
  ■ 軌道要素1 :出典はFO-29「ふじ3号」に同じ.
  
